period_start,C,m1,H,J0,J1,J2,J3,J4,J5,JA,JB,JC,JD,JJ,JK,JN,#
2015-10-26 00:01:13,0.06,1.43,0.00,22.49,27.72,30.80,14.57,47.05,1013.43,2032.01,3045.73,2875.37,3121.67,600.18,595.36,34.18,0000 0000 0000 0000 000000
2015-10-26 00:06:15,0.05,1.43,0.00,22.49,27.72,30.79,14.50,46.92,1013.34,2032.01,3044.67,2874.60,3120.94,600.06,595.16,34.23,0000 0000 0000 0000 000000
2015-10-26 00:11:17,0.04,1.43,0.00,22.48,27.72,30.79,14.56,46.94,1013.25,2032.02,3043.71,2873.99,3120.12,600.01,595.05,34.28,0000 0000 0000 0000 000000
2015-10-26 00:16:18,0.06,1.44,0.00,22.49,27.72,30.81,14.58,47.10,1013.24,2032.03,3042.64,2873.20,3119.43,599.91,594.93,34.33,0000 0000 0000 0000 000000
2015-10-26 00:21:19,0.05,1.44,0.00,22.43,27.72,30.78,14.54,47.07,1013.35,2032.05,3041.63,2872.54,3118.69,600.15,595.29,34.38,0000 0000 0000 0000 000000
2015-10-26 00:26:21,0.03,1.44,0.00,22.43,27.71,30.79,14.56,47.00,1013.49,2032.02,3040.56,2871.90,3117.90,600.08,595.44,34.43,0000 0000 0000 0000 000000
2015-10-26 00:31:22,0.05,1.44,0.00,22.42,27.70,30.80,14.53,47.02,1013.55,2032.03,3039.62,2871.05,3117.03,599.85,595.26,34.49,0000 0000 0000 0000 000000
2015-10-26 00:36:23,0.07,1.45,0.00,22.40,27.70,30.78,14.64,47.14,1013.54,2032.03,3038.31,2870.21,3116.11,600.11,595.59,34.54,0000 0000 0000 0000 000000
2015-10-26 00:41:25,0.06,1.45,0.00,22.38,27.70,30.79,14.67,47.04,1013.48,2032.03,3037.20,2869.53,3115.29,600.04,595.43,34.59,0000 0000 0000 0000 000000
2015-10-26 00:46:26,0.04,1.45,0.00,22.37,27.70,30.78,14.51,47.03,1013.39,2032.03,3036.08,2868.82,3114.50,599.86,595.27,34.64,0000 0000 0000 0000 000000
2015-10-26 00:51:27,0.05,1.46,0.00,22.34,27.70,30.79,14.62,47.02,1013.40,2032.02,3035.00,2868.03,3113.65,600.24,595.76,34.69,0000 0000 0000 0000 000000
2015-10-26 00:56:29,0.05,1.46,0.00,22.32,27.69,30.79,14.60,47.03,1013.51,2032.04,3034.00,2867.32,3112.97,600.41,595.74,34.74,0000 0000 0000 0000 000000
2015-10-26 01:01:30,0.05,1.46,0.00,22.33,27.68,30.80,14.60,47.06,1013.55,2032.06,3033.02,2866.74,3112.13,599.89,595.37,34.79,0000 0000 0000 0000 000000
2015-10-26 01:06:31,0.05,1.46,0.00,22.31,27.67,30.78,14.58,46.96,1013.41,2032.07,3032.00,2865.99,3111.44,599.85,595.38,34.84,0000 0000 0000 0000 000000
2015-10-26 01:11:32,0.06,1.47,0.00,22.29,27.67,30.78,14.58,47.11,1013.32,2032.04,3030.92,2865.17,3110.62,600.07,595.51,34.89,0000 0000 0000 0000 000000
2015-10-26 01:16:34,0.05,1.47,0.00,22.30,27.67,30.77,14.54,47.12,1013.24,2032.08,3029.87,2864.61,3109.88,599.78,595.14,34.94,0000 0000 0000 0000 000000
2015-10-26 01:21:36,0.04,1.47,0.00,22.27,27.67,30.76,14.52,47.02,1013.34,2032.09,3028.85,2863.93,3109.06,599.76,595.34,34.99,0000 0000 0000 0000 000000
2015-10-26 01:26:37,0.06,1.48,0.00,22.27,27.65,30.78,14.54,47.06,1013.58,2032.12,3027.87,2863.11,3108.26,599.62,595.38,35.04,0000 0000 0000 0000 000000
2015-10-26 01:31:38,0.06,1.48,0.00,22.28,27.65,30.79,14.57,47.07,1013.60,2032.18,3026.89,2862.54,3107.64,599.98,595.56,35.09,0000 0000 0000 0000 000000
2015-10-26 01:36:39,0.04,1.48,0.00,22.28,27.65,30.78,14.56,47.02,1013.57,2032.18,3025.93,2861.90,3106.89,600.33,595.99,35.14,0000 0000 0000 0000 000000
2015-10-26 01:41:40,0.06,1.48,0.00,22.28,27.65,30.78,14.56,47.13,1013.35,2032.22,3024.96,2861.07,3106.06,599.72,595.30,35.19,0000 0000 0000 0000 000000
2015-10-26 01:46:42,0.07,1.49,0.00,22.34,27.65,30.76,14.55,46.87,1013.27,2032.41,3024.01,2860.50,3105.34,600.06,595.46,35.24,0000 0000 0000 0000 000000
2015-10-26 01:51:43,0.03,1.49,0.00,22.34,27.65,30.77,14.58,47.10,1013.28,2032.33,3023.02,2859.88,3104.64,600.02,595.46,35.29,0000 0000 0000 0000 000000
2015-10-26 01:56:44,0.05,1.49,0.00,22.34,27.65,30.78,14.49,47.14,1013.23,2032.26,3022.01,2859.08,3103.85,599.42,594.81,35.35,0000 0000 0000 0000 000000
2015-10-26 02:01:46,0.06,1.50,0.00,22.37,27.66,30.78,14.60,47.12,1013.45,2032.33,3021.01,2858.37,3103.04,600.18,595.63,35.40,0000 0000 0000 0000 000000
2015-10-26 02:06:48,0.03,1.50,0.00,22.35,27.66,30.78,14.62,47.33,1013.56,2032.26,3020.04,2857.74,3102.26,599.92,595.53,35.45,0000 0000 0000 0000 000000
2015-10-26 02:11:49,0.05,1.50,0.00,22.34,27.66,30.78,14.52,47.06,1013.49,2032.20,3019.01,2857.00,3101.54,599.97,595.70,35.50,0000 0000 0000 0000 000000
2015-10-26 02:16:50,0.05,1.50,0.00,22.32,27.65,30.78,14.53,47.18,1013.48,2032.14,3018.01,2856.22,3100.73,599.86,595.40,35.55,0000 0000 0000 0000 000000
2015-10-26 02:21:52,0.05,1.50,0.00,22.30,27.65,30.80,14.60,47.16,1013.49,2032.14,3016.99,2855.62,3099.94,600.22,595.84,35.60,0000 0000 0000 0000 000000
2015-10-26 02:26:53,0.04,1.51,0.00,22.28,27.65,30.78,14.65,47.27,1013.54,2032.09,3015.93,2854.89,3099.07,600.39,596.07,35.65,0000 0000 0000 0000 000000
2015-10-26 02:31:54,0.06,1.51,0.00,22.27,27.65,30.78,14.53,47.36,1013.57,2032.06,3014.85,2854.06,3098.23,599.80,595.61,35.70,0000 0000 0000 0000 000000
2015-10-26 02:36:55,0.06,1.51,0.00,22.25,27.65,30.76,14.55,47.01,1013.53,2032.12,3013.89,2853.40,3097.57,599.95,595.70,35.75,0000 0000 0000 0000 000000
2015-10-26 02:41:57,0.04,1.52,0.00,22.22,27.65,30.79,14.57,47.31,1013.44,2032.21,3012.90,2852.86,3096.90,600.21,595.93,35.80,0000 0000 0000 0000 000000
2015-10-26 02:46:58,0.04,1.52,0.00,22.21,27.64,30.79,14.50,47.20,1013.22,2032.13,3011.92,2852.04,3096.07,599.56,595.31,35.85,0000 0000 0000 0000 000000
2015-10-26 02:52:00,0.07,1.52,0.00,22.20,27.63,30.78,14.56,46.98,1013.21,2032.19,3011.01,2851.39,3095.29,599.87,595.51,35.90,0000 0000 0000 0000 000000
2015-10-26 02:57:01,0.04,1.52,0.00,22.18,27.62,30.78,14.53,47.08,1013.22,2032.25,3010.08,2850.80,3094.58,600.07,595.66,35.95,0000 0000 0000 0000 000000
2015-10-26 03:02:02,0.04,1.53,0.00,22.16,27.62,30.78,14.53,47.23,1013.23,2032.09,3008.97,2850.02,3093.84,599.48,595.27,36.00,0000 0000 0000 0000 000000
2015-10-26 03:07:04,0.07,1.53,0.00,22.15,27.62,30.77,14.60,47.12,1013.30,2032.17,3008.07,2849.33,3093.06,600.27,595.98,36.05,0000 0000 0000 0000 000000
2015-10-26 03:12:05,0.03,1.53,0.00,22.13,27.62,30.79,14.56,47.07,1013.58,2032.22,3007.27,2848.96,3092.42,599.93,595.93,36.10,0000 0000 0000 0000 000000
2015-10-26 03:17:06,0.06,1.53,0.00,22.13,27.61,30.78,14.55,46.97,1013.63,2032.39,3006.58,2848.16,3091.90,600.03,595.99,36.15,0000 0000 0000 0000 000000
2015-10-26 03:22:07,0.06,1.54,0.00,22.13,27.60,30.77,14.62,47.04,1013.58,2032.57,3005.76,2847.77,3091.10,600.16,596.18,36.20,0000 0000 0000 0000 000000
2015-10-26 03:27:09,0.05,1.54,0.00,22.12,27.60,30.77,14.71,47.37,1013.30,2032.65,3004.93,2847.03,3090.57,599.95,595.81,36.25,0000 0000 0000 0000 000000
2015-10-26 03:32:10,0.05,1.54,0.00,22.14,27.60,30.77,14.56,47.21,1013.22,2032.71,3004.04,2846.50,3089.93,599.83,595.63,36.31,0000 0000 0000 0000 000000
2015-10-26 03:37:11,0.01,1.54,0.00,22.13,27.60,30.75,14.61,47.31,1013.22,2032.46,3003.14,2845.88,3089.09,600.25,596.13,36.36,0000 0000 0000 0000 000000
2015-10-26 03:42:12,0.06,1.55,0.00,22.13,27.60,30.75,14.58,46.98,1013.24,2032.41,3002.24,2845.10,3088.56,600.03,595.75,36.41,0000 0000 0000 0000 000000
2015-10-26 03:47:14,0.03,1.55,0.00,22.14,27.60,30.75,14.50,46.95,1013.56,2032.58,3001.67,2844.88,3088.01,599.59,595.63,36.46,0000 0000 0000 0000 000000
2015-10-26 03:52:15,0.02,1.55,0.00,22.14,27.60,30.77,14.63,47.09,1013.68,2032.45,3000.96,2844.09,3087.40,600.32,596.30,36.51,0000 0000 0000 0000 000000
2015-10-26 03:57:16,0.04,1.55,0.00,22.13,27.59,30.76,14.58,46.94,1013.69,2032.70,3000.20,2843.98,3087.00,599.72,595.85,36.56,0000 0000 0000 0000 000000
2015-10-26 04:02:17,0.04,1.55,0.00,22.12,27.58,30.76,14.54,47.08,1013.69,2032.59,2999.70,2843.35,3086.55,599.83,595.89,36.61,0000 0000 0000 0000 000000
2015-10-26 04:07:19,0.01,1.56,0.00,22.11,27.57,30.75,14.56,47.08,1013.69,2032.54,2999.03,2843.00,3086.01,599.73,595.75,36.66,0000 0000 0000 0000 000000
2015-10-26 04:12:20,0.04,1.56,0.00,22.11,27.57,30.75,14.50,46.96,1013.69,2032.63,2998.55,2842.83,3085.74,599.54,595.71,36.71,0000 0000 0000 0000 000000
2015-10-26 04:17:22,0.04,1.56,0.00,22.09,27.57,30.74,14.52,46.96,1013.69,2032.68,2998.00,2842.14,3085.06,599.80,595.95,36.76,0000 0000 0000 0000 000000
2015-10-26 04:22:23,0.03,1.56,0.00,22.09,27.57,30.76,14.56,46.92,1013.70,2032.72,2997.43,2841.98,3084.97,599.71,595.86,36.81,0000 0000 0000 0000 000000
2015-10-26 04:27:24,0.03,1.56,0.00,22.06,27.57,30.76,14.58,47.27,1013.69,2032.69,2997.00,2841.64,3084.23,599.70,596.05,36.86,0000 0000 0000 0000 000000
2015-10-26 04:32:25,0.03,1.56,0.00,22.04,27.55,30.75,14.60,47.07,1013.72,2032.74,2996.33,2841.04,3084.00,599.89,596.15,36.91,0000 0000 0000 0000 000000
2015-10-26 04:37:27,0.02,1.57,0.00,22.04,27.55,30.72,14.63,47.15,1013.73,2032.84,2995.98,2840.99,3083.61,600.22,596.47,36.96,0000 0000 0000 0000 000000
2015-10-26 04:42:28,0.04,1.57,0.00,22.02,27.55,30.75,14.60,47.17,1013.73,2032.71,2995.20,2840.33,3083.02,600.23,596.51,37.01,0000 0000 0000 0000 000000
2015-10-26 04:47:29,0.00,1.57,0.00,22.03,27.55,30.74,14.65,47.11,1013.71,2032.73,2994.81,2840.01,3082.81,600.08,596.46,37.06,0000 0000 0000 0000 000000
2015-10-26 04:52:30,0.03,1.57,0.00,22.00,27.54,30.74,14.63,47.26,1013.70,2032.66,2994.03,2839.75,3082.06,600.09,596.43,37.11,0000 0000 0000 0000 000000
2015-10-26 04:57:32,0.04,1.57,0.00,21.97,27.52,30.75,14.60,47.11,1013.69,2032.68,2993.44,2839.08,3081.96,599.70,596.13,37.16,0000 0000 0000 0000 000000
2015-10-26 05:02:33,0.03,1.57,0.00,21.94,27.52,30.74,14.52,47.05,1013.69,2032.80,2992.99,2838.99,3081.22,599.81,596.19,37.21,0000 0000 0000 0000 000000
2015-10-26 05:07:34,0.03,1.57,0.00,21.93,27.52,30.74,14.59,47.05,1013.75,2032.73,2992.21,2838.38,3080.99,600.02,596.41,37.26,0000 0000 0000 0000 000000
2015-10-26 05:12:35,0.03,1.58,0.00,21.88,27.52,30.74,14.57,47.16,1013.88,2032.89,2991.89,2838.01,3080.43,600.05,596.72,37.32,0000 0000 0000 0000 000000
2015-10-26 05:17:37,0.04,1.58,0.00,21.85,27.50,30.75,14.64,47.26,1013.97,2032.93,2991.08,2837.60,3079.99,599.80,596.58,37.37,0000 0000 0000 0000 000000
2015-10-26 05:22:38,0.04,1.58,0.00,21.73,27.50,30.76,14.66,46.97,1014.13,2032.96,2990.47,2837.02,3079.46,600.32,597.35,37.42,0000 0000 0000 0000 000000
2015-10-26 05:27:39,0.02,1.58,0.00,21.52,27.47,30.83,14.64,47.04,1014.12,2032.96,2989.79,2836.85,3079.00,599.98,597.37,37.47,0000 0000 0000 0000 000000
2015-10-26 05:32:40,0.04,1.59,0.00,21.26,27.44,31.05,14.72,47.26,1014.15,2032.99,2989.04,2836.12,3078.70,600.21,598.32,37.52,0000 0000 0000 0000 000000
2015-10-26 05:37:42,0.02,1.59,0.00,20.97,27.40,31.04,14.73,47.33,1014.18,2032.99,2988.56,2836.00,3078.07,599.92,598.76,37.57,0000 0000 0000 0000 000000
2015-10-26 05:42:43,0.01,1.59,0.00,20.69,27.34,30.97,14.70,47.24,1014.19,2033.03,2988.02,2835.99,3078.00,599.97,599.32,37.62,0000 0000 0000 0000 000000
2015-10-26 05:47:44,0.04,1.59,0.00,20.41,27.26,30.89,14.77,47.38,1014.18,2033.27,2987.69,2835.88,3077.98,599.79,599.45,37.67,0000 0000 0000 0000 000000
2015-10-26 05:52:46,0.09,1.59,0.00,20.13,27.18,30.77,14.83,47.43,1014.18,2033.90,2987.03,2835.27,3077.68,600.00,600.48,37.72,0000 0000 0000 0000 000000
2015-10-26 05:57:47,0.01,1.60,0.00,19.87,27.09,30.76,14.83,47.73,1014.19,2034.00,2986.88,2835.03,3077.14,599.89,600.77,37.77,0000 0000 0000 0000 000000
2015-10-26 06:02:48,0.06,1.60,0.00,19.66,27.00,30.66,14.85,48.02,1014.23,2034.30,2986.22,2835.01,3077.05,600.08,601.32,37.82,0000 0000 0000 0000 000000
2015-10-26 06:07:50,0.05,1.60,0.00,19.56,26.90,30.53,14.89,47.96,1014.22,2034.94,2986.01,2835.00,3077.01,599.50,601.19,37.87,0000 0000 0000 0000 000000
2015-10-26 06:12:51,0.00,1.60,0.00,19.49,26.80,30.36,14.82,47.58,1014.19,2035.01,2985.90,2835.00,3077.00,599.88,601.58,37.92,0000 0000 0000 0000 000000
2015-10-26 06:17:52,0.09,1.60,0.00,19.42,26.71,30.25,14.94,47.77,1014.18,2035.65,2985.39,2835.00,3077.00,600.36,602.24,37.97,0000 0000 0000 0000 000000
2015-10-26 06:22:53,0.01,1.61,0.00,19.52,26.61,30.10,14.85,47.56,1014.18,2035.99,2985.02,2834.99,3076.99,599.97,601.74,38.02,0000 0000 0000 0000 000000
2015-10-26 06:27:55,0.02,1.61,0.00,19.54,26.53,29.99,14.89,47.65,1014.18,2036.09,2984.97,2834.91,3076.86,599.65,601.28,38.07,0000 0000 0000 0000 000000
2015-10-26 06:32:56,0.09,1.61,0.00,19.44,26.44,29.83,14.73,47.34,1014.18,2036.81,2984.61,2834.78,3076.50,599.77,601.64,38.12,0000 0000 0000 0000 000000
2015-10-26 06:37:58,0.04,1.61,0.00,19.40,26.35,29.71,14.93,47.71,1014.18,2036.99,2984.04,2834.42,3076.14,600.00,601.95,38.17,0000 0000 0000 0000 000000
2015-10-26 06:42:59,0.01,1.62,0.00,19.37,26.27,29.62,14.79,47.52,1014.18,2037.07,2983.83,2834.03,3076.00,599.65,601.64,38.23,0000 0000 0000 0000 000000
2015-10-26 06:48:00,0.09,1.62,0.00,19.34,26.19,29.56,14.90,47.58,1014.18,2037.79,2983.08,2834.00,3075.99,600.51,602.56,38.28,0000 0000 0000 0000 000000
2015-10-26 06:53:01,0.01,1.62,0.00,19.31,26.11,29.47,14.86,47.63,1014.18,2037.99,2982.91,2833.99,3075.86,600.27,602.55,38.33,0000 0000 0000 0000 000000
2015-10-26 06:58:02,0.04,1.62,0.00,19.27,26.03,29.41,14.82,47.63,1014.18,2038.14,2982.25,2833.93,3075.57,599.59,601.68,38.38,0000 0000 0000 0000 000000
2015-10-26 07:03:03,0.10,1.63,0.00,19.23,25.96,29.35,14.79,47.60,1014.18,2038.79,2982.00,2833.37,3075.06,599.43,601.78,38.43,0000 0000 0000 0000 000000
2015-10-26 07:08:04,0.02,1.63,0.00,19.21,25.89,29.28,14.72,47.39,1014.19,2038.98,2981.62,2833.03,3075.00,599.42,601.81,38.48,0000 0000 0000 0000 000000
2015-10-26 07:13:06,0.01,1.63,0.00,19.19,25.82,29.24,14.82,47.54,1014.20,2039.08,2981.04,2833.00,3074.99,599.75,602.09,38.53,0000 0000 0000 0000 000000
2015-10-26 07:18:07,0.08,1.63,0.00,19.17,25.76,29.23,14.82,47.36,1014.35,2039.68,2980.84,2833.00,3074.69,599.88,602.41,38.58,0000 0000 0000 0000 000000
2015-10-26 07:23:09,0.04,1.64,0.00,19.17,25.70,29.12,14.84,47.31,1014.54,2039.97,2980.07,2832.91,3074.07,599.94,602.69,38.63,0000 0000 0000 0000 000000
2015-10-26 07:28:10,0.02,1.64,0.00,19.17,25.64,29.13,14.70,47.37,1014.55,2039.99,2979.97,2832.39,3074.00,599.73,602.35,38.68,0000 0000 0000 0000 000000
2015-10-26 07:33:11,0.02,1.64,0.00,19.17,25.59,29.06,14.79,47.38,1014.62,2040.04,2979.27,2832.04,3073.96,600.03,602.74,38.73,0000 0000 0000 0000 000000
2015-10-26 07:38:13,0.06,1.64,0.00,19.17,25.53,29.01,14.85,47.39,1014.62,2040.31,2978.91,2832.00,3073.33,600.08,602.70,38.78,0000 0000 0000 0000 000000
2015-10-26 07:43:14,0.06,1.65,0.00,19.17,25.49,29.02,14.79,47.49,1014.63,2040.91,2978.11,2831.96,3073.02,599.94,602.63,38.83,0000 0000 0000 0000 000000
2015-10-26 07:48:16,0.03,1.65,0.00,19.17,25.44,28.92,14.83,47.60,1014.66,2040.99,2977.79,2831.33,3072.93,600.23,602.88,38.88,0000 0000 0000 0000 000000
2015-10-26 07:53:17,0.03,1.65,0.00,19.17,25.40,28.91,14.89,47.58,1014.66,2040.99,2977.04,2831.00,3072.19,600.08,602.82,38.93,0000 0000 0000 0000 000000
2015-10-26 07:58:19,0.02,1.65,0.00,19.17,25.36,28.89,14.81,47.53,1014.64,2041.01,2976.37,2830.87,3072.00,599.93,602.64,38.98,0000 0000 0000 0000 000000
2015-10-26 08:03:20,0.07,1.65,0.00,19.16,25.33,28.87,14.83,47.47,1014.65,2041.29,2975.98,2830.14,3071.60,600.05,602.74,39.03,0000 0000 0000 0000 000000
2015-10-26 08:08:21,0.06,1.66,0.00,19.16,25.29,28.88,14.77,47.46,1014.65,2041.79,2975.20,2830.00,3071.02,599.75,602.50,39.08,0000 0000 0000 0000 000000
2015-10-26 08:13:22,0.03,1.66,0.00,19.16,25.26,28.84,14.76,47.50,1014.66,2041.97,2974.63,2829.75,3070.92,599.85,602.55,39.13,0000 0000 0000 0000 000000
2015-10-26 08:18:24,0.04,1.66,0.00,19.14,25.23,28.87,14.80,47.59,1014.66,2041.99,2973.98,2829.06,3070.13,599.81,602.46,39.19,0000 0000 0000 0000 000000
2015-10-26 08:23:25,0.02,1.66,0.00,19.14,25.21,28.83,14.83,47.67,1014.66,2041.99,2973.20,2828.95,3069.94,600.31,603.06,39.24,0000 0000 0000 0000 000000
2015-10-26 08:28:26,0.05,1.67,0.00,19.12,25.18,28.83,14.86,47.52,1014.66,2041.99,2972.66,2828.22,3069.16,600.30,603.12,39.29,0000 0000 0000 0000 000000
2015-10-26 08:33:28,0.02,1.67,0.00,19.12,25.16,28.83,14.80,47.60,1014.67,2042.02,2971.90,2827.99,3068.76,600.15,602.96,39.34,0000 0000 0000 0000 000000
2015-10-26 08:38:29,0.05,1.67,0.00,19.12,25.14,28.82,14.84,47.82,1014.66,2042.03,2971.07,2827.25,3068.03,599.89,602.72,39.39,0000 0000 0000 0000 000000
2015-10-26 08:43:30,0.05,1.67,0.00,19.11,25.12,28.83,14.82,47.66,1014.67,2042.22,2970.32,2826.99,3067.51,600.31,603.12,39.44,0000 0000 0000 0000 000000
2015-10-26 08:48:31,0.08,1.68,0.00,19.09,25.10,28.81,14.82,47.65,1014.67,2042.62,2969.66,2826.30,3067.00,599.95,602.87,39.49,0000 0000 0000 0000 000000
2015-10-26 08:53:33,0.06,1.68,0.00,19.09,25.07,28.80,14.78,47.67,1014.66,2042.94,2968.84,2825.89,3066.30,600.04,602.94,39.54,0000 0000 0000 0000 000000
2015-10-26 08:58:34,0.05,1.68,0.00,19.09,25.06,28.80,14.78,47.67,1014.67,2042.96,2967.91,2825.06,3065.38,599.70,602.44,39.59,0000 0000 0000 0000 000000
2015-10-26 09:03:35,0.05,1.69,0.00,19.07,25.05,28.78,14.81,47.57,1014.67,2042.97,2967.05,2824.58,3064.87,600.12,603.01,39.64,0000 0000 0000 0000 000000
2015-10-26 09:08:37,0.03,1.69,0.00,19.06,25.02,28.80,14.81,47.84,1014.67,2042.98,2966.27,2824.01,3064.09,599.98,602.97,39.69,0000 0000 0000 0000 000000
2015-10-26 09:13:38,0.02,1.69,0.00,19.04,25.01,28.82,14.89,47.63,1014.72,2042.99,2965.73,2823.71,3063.91,600.35,603.11,39.74,0000 0000 0000 0000 000000
2015-10-26 09:18:39,0.04,1.69,0.00,19.03,25.00,28.77,14.87,47.63,1014.73,2042.99,2964.89,2823.04,3063.12,600.28,603.28,39.79,0000 0000 0000 0000 000000
2015-10-26 09:23:41,0.05,1.69,0.00,19.02,24.98,28.77,14.79,47.82,1014.92,2042.99,2964.06,2822.66,3062.49,599.86,603.01,39.84,0000 0000 0000 0000 000000
2015-10-26 09:28:42,0.03,1.70,0.00,18.99,24.97,28.78,14.86,47.63,1015.12,2043.00,2963.34,2822.03,3062.00,600.03,603.27,39.89,0000 0000 0000 0000 000000
2015-10-26 09:33:43,0.03,1.70,0.00,18.99,24.96,28.78,14.83,47.38,1015.15,2043.01,2962.70,2821.76,3061.46,600.05,603.36,39.94,0000 0000 0000 0000 000000
2015-10-26 09:38:45,0.03,1.70,0.00,18.98,24.95,28.75,14.83,47.69,1015.15,2043.03,2962.01,2821.07,3060.99,599.93,603.44,39.99,0000 0000 0000 0000 000000
2015-10-26 09:43:46,0.04,1.70,0.00,18.97,24.93,28.76,14.93,47.87,1015.15,2043.03,2961.19,2820.92,3060.27,600.21,603.61,40.04,0000 0000 0000 0000 000000
2015-10-26 09:48:47,0.04,1.70,0.00,18.97,24.92,28.74,14.84,47.84,1015.15,2043.06,2960.52,2820.20,3059.95,599.88,603.21,40.09,0000 0000 0000 0000 000000
2015-10-26 09:53:48,0.03,1.71,0.00,18.97,24.90,28.73,14.84,47.70,1015.15,2043.09,2959.83,2819.87,3059.14,599.93,603.40,40.15,0000 0000 0000 0000 000000
2015-10-26 09:58:50,0.05,1.71,0.00,18.96,24.90,28.71,14.87,48.13,1015.15,2043.12,2959.02,2819.09,3058.72,600.11,603.50,40.20,0000 0000 0000 0000 000000
2015-10-26 10:03:51,0.06,1.71,0.00,18.94,24.88,28.73,14.82,47.75,1015.14,2043.47,2958.25,2818.95,3058.03,600.01,603.45,40.25,0000 0000 0000 0000 000000
2015-10-26 10:08:52,0.09,1.72,0.00,18.94,24.87,28.67,14.86,47.63,1015.13,2043.82,2957.53,2818.18,3057.53,599.89,603.41,40.30,0000 0000 0000 0000 000000
2015-10-26 10:13:54,0.03,1.72,0.00,18.94,24.87,28.65,14.82,47.64,1015.15,2043.86,2956.79,2817.87,3056.96,600.14,603.66,40.35,0000 0000 0000 0000 000000
2015-10-26 10:18:55,0.05,1.72,0.00,18.93,24.85,28.70,14.83,47.58,1015.15,2043.90,2955.98,2817.10,3056.16,600.55,604.03,40.40,0000 0000 0000 0000 000000
2015-10-26 10:23:56,0.03,1.72,0.00,18.93,24.85,28.69,14.85,47.54,1015.15,2043.98,2955.15,2816.89,3055.94,600.09,603.65,40.45,0000 0000 0000 0000 000000
2015-10-26 10:28:57,0.06,1.73,0.00,18.92,24.83,28.69,14.90,47.36,1015.15,2043.98,2954.41,2816.10,3055.15,600.28,603.61,40.50,0000 0000 0000 0000 000000
2015-10-26 10:33:59,0.02,1.73,0.00,18.89,24.82,28.69,14.84,47.45,1015.16,2043.98,2953.71,2815.96,3054.63,599.97,603.61,40.55,0000 0000 0000 0000 000000
2015-10-26 10:39:00,0.04,1.73,0.00,18.89,24.82,28.65,14.85,47.47,1015.16,2043.98,2952.98,2815.24,3054.01,600.13,603.67,40.60,0000 0000 0000 0000 000000
2015-10-26 10:44:01,0.03,1.73,0.00,18.89,24.80,28.58,14.78,47.49,1015.16,2043.99,2952.12,2814.99,3053.51,599.92,603.40,40.65,0000 0000 0000 0000 000000
2015-10-26 10:49:02,0.04,1.73,0.00,18.88,24.80,28.63,14.88,47.67,1015.15,2043.99,2951.59,2814.45,3052.99,600.05,603.58,40.70,0000 0000 0000 0000 000000
2015-10-26 10:54:03,0.03,1.73,0.00,18.88,24.79,28.66,14.83,47.50,1015.16,2043.99,2950.82,2813.99,3052.24,600.07,603.65,40.75,0000 0000 0000 0000 000000
2015-10-26 10:59:04,0.05,1.74,0.00,18.87,24.77,28.65,14.84,47.59,1015.15,2043.99,2949.97,2813.32,3051.80,600.06,603.62,40.80,0000 0000 0000 0000 000000
2015-10-26 11:04:06,0.03,1.74,0.00,18.87,24.77,28.61,14.87,47.72,1015.15,2043.99,2949.11,2812.98,3051.05,599.90,603.49,40.85,0000 0000 0000 0000 000000
2015-10-26 11:09:07,0.06,1.74,0.00,18.86,24.76,28.58,14.79,47.80,1015.16,2044.00,2948.49,2812.33,3050.61,600.15,603.82,40.90,0000 0000 0000 0000 000000
2015-10-26 11:14:08,0.03,1.74,0.00,18.84,24.75,28.59,14.90,48.07,1015.16,2044.00,2947.51,2811.85,3049.92,600.35,604.13,40.95,0000 0000 0000 0000 000000
2015-10-26 11:19:10,0.04,1.75,0.00,18.84,24.75,28.57,14.84,47.66,1015.16,2044.00,2946.82,2811.06,3049.10,600.24,603.90,41.00,0000 0000 0000 0000 000000
2015-10-26 11:24:12,0.03,1.75,0.00,18.84,24.72,28.58,14.80,47.74,1015.16,2044.01,2946.01,2810.85,3048.72,599.74,603.36,41.05,0000 0000 0000 0000 000000
2015-10-26 11:29:13,0.05,1.75,0.00,18.84,24.72,28.56,14.81,47.72,1015.25,2044.02,2945.18,2810.07,3048.03,599.98,603.70,41.11,0000 0000 0000 0000 000000
2015-10-26 11:34:15,0.02,1.75,0.00,18.84,24.72,28.58,14.81,47.57,1015.43,2044.03,2944.64,2809.94,3047.53,599.97,603.78,41.16,0000 0000 0000 0000 000000
2015-10-26 11:39:16,0.04,1.75,0.00,18.84,24.70,28.60,14.81,47.57,1015.36,2044.05,2944.00,2809.18,3047.00,599.97,603.76,41.21,0000 0000 0000 0000 000000
2015-10-26 11:44:17,0.04,1.76,0.00,18.84,24.70,28.56,14.86,47.49,1015.40,2044.10,2943.24,2808.99,3046.42,600.08,603.85,41.26,0000 0000 0000 0000 000000
2015-10-26 11:49:19,0.05,1.76,0.00,18.86,24.68,28.62,14.95,47.56,1015.53,2044.23,2942.69,2808.52,3046.00,600.34,604.16,41.31,0000 0000 0000 0000 000000
2015-10-26 11:54:20,0.02,1.76,0.00,18.87,24.67,28.60,14.82,47.37,1015.63,2044.22,2941.99,2808.01,3045.42,600.09,603.91,41.36,0000 0000 0000 0000 000000
2015-10-26 11:59:22,0.05,1.76,0.00,18.88,24.67,28.54,14.80,47.16,1015.64,2044.36,2941.22,2807.83,3045.00,599.61,603.55,41.41,0000 0000 0000 0000 000000
2015-10-26 12:04:23,0.08,1.76,0.00,18.89,24.66,28.52,14.88,47.12,1015.64,2044.67,2940.65,2807.08,3044.36,600.24,604.03,41.46,0000 0000 0000 0000 000000
2015-10-26 12:09:24,0.02,1.77,0.00,18.92,24.65,28.56,14.81,47.01,1015.64,2044.91,2940.01,2806.92,3044.00,599.88,603.59,41.51,0000 0000 0000 0000 000000
2015-10-26 12:14:26,0.05,1.77,0.00,18.94,24.65,28.55,14.89,47.24,1015.60,2044.93,2939.33,2806.17,3043.40,600.04,603.67,41.56,0000 0000 0000 0000 000000
2015-10-26 12:19:27,0.01,1.77,0.00,18.95,24.65,28.54,14.78,47.08,1015.61,2044.86,2938.55,2805.99,3042.99,599.68,603.29,41.61,0000 0000 0000 0000 000000
2015-10-26 12:24:28,0.05,1.77,0.00,18.97,24.64,28.47,14.91,47.23,1015.58,2044.90,2937.98,2805.45,3042.36,600.37,603.89,41.66,0000 0000 0000 0000 000000
2015-10-26 12:29:30,0.02,1.78,0.00,18.97,24.63,28.50,14.82,47.11,1015.60,2044.95,2937.18,2805.01,3042.00,599.91,603.48,41.71,0000 0000 0000 0000 000000
2015-10-26 12:34:31,0.05,1.78,0.00,18.99,24.62,28.46,14.87,47.06,1015.53,2044.97,2936.71,2804.67,3041.37,599.83,603.40,41.76,0000 0000 0000 0000 000000
2015-10-26 12:39:32,0.03,1.78,0.00,19.00,24.62,28.43,14.76,47.02,1015.44,2044.96,2935.98,2804.02,3040.68,599.85,603.39,41.81,0000 0000 0000 0000 000000
2015-10-26 12:44:33,0.05,1.78,0.00,19.01,24.62,28.42,14.81,47.16,1015.59,2044.93,2935.11,2803.39,3040.02,600.02,603.58,41.86,0000 0000 0000 0000 000000
2015-10-26 12:49:35,0.04,1.78,0.00,19.02,24.62,28.41,14.85,47.24,1015.59,2044.96,2934.30,2802.95,3039.44,599.99,603.46,41.91,0000 0000 0000 0000 000000
2015-10-26 12:54:36,0.05,1.79,0.00,19.02,24.62,28.41,14.79,47.18,1015.62,2044.92,2933.45,2802.13,3038.67,599.99,603.52,41.97,0000 0000 0000 0000 000000